EW6308 Weather Reports


time (UTC)temp
F
wind
direction
speed
knots
gust
knots
rain 1hr
in
rain 24hr
in
rain mn
in
humidity
%
barometer
mb
20260505201227 83 208 6.1 9.6 0.00 0.00 0.00 69 1008.1
20260505200725 83 218 7.8 14.8 0.00 0.00 0.00 70 1008.0
20260505200222 84 221 7.8 14.8 0.00 0.00 0.00 67 1008.2
20260505195717 83 94 5.2 9.6 0.00 0.00 0.00 70 1008.1
20260505195215 83 174 11.3 14.8 0.00 0.00 0.00 67 1008.3
20260505194712 83 189 9.6 13.0 0.00 0.00 0.00 68 1008.2
20260505194209 83 200 3.5 7.8 0.00 0.00 0.00 68 1008.4
20260505193704 83 217 6.1 13.0 0.00 0.00 0.00 67 1008.4
20260505193202 82 174 2.6 12.2 0.00 0.00 0.00 70 1008.5
20260505192700 83 234 4.3 13.0 0.00 0.00 0.00 69 1008.5
20260505192158 82 161 5.2 7.8 0.00 0.00 0.00 70 1008.5
20260505191656 83 210 10.4 14.8 0.00 0.00 0.00 68 1008.5
20260505191154 83 213 6.1 13.0 0.00 0.00 0.00 69 1008.5
20260505190649 83 182 6.1 13.0 0.00 0.00 0.00 69 1008.6
20260505190149 82 153 10.4 13.9 0.00 0.00 0.00 70 1008.4
20260505185646 81 157 5.2 15.6 0.00 0.00 0.00 72 1008.5
20260505185143 82 176 11.3 15.6 0.00 0.00 0.00 70 1008.4
20260505184639 82 213 7.0 14.8 0.00 0.00 0.00 71 1008.6
20260505184136 82 152 13.0 15.6 0.00 0.00 0.00 70 1008.6
20260505183633 82 221 6.1 13.0 0.00 0.00 0.00 71 1008.7
20260505183131 82 108 4.3 14.8 0.00 0.00 0.00 70 1008.8
20260505182627 82 177 7.8 12.2 0.00 0.00 0.00 70 1009.1
20260505182124 83 183 9.6 13.0 0.00 0.00 0.00 68 1008.9
20260505181620 82 184 3.5 12.2 0.00 0.00 0.00 71 1009.0
20260505181118 82 207 5.2 13.9 0.00 0.00 0.00 70 1009.2
20260505180614 82 213 4.3 12.2 0.00 0.00 0.00 70 1009.0
20260505180111 82 180 9.6 13.9 0.00 0.00 0.00 69 1009.3
20260505175607 82 204 9.6 15.6 0.00 0.00 0.00 68 1009.3
20260505175104 81 211 7.8 12.2 0.00 0.00 0.00 69 1009.3
20260505174600 80 175 7.8 13.0 0.00 0.00 0.00 71 1009.3
20260505174056 80 118 5.2 15.6 0.00 0.00 0.00 71 1009.6
20260505173553 79 161 6.1 12.2 0.00 0.00 0.00 74 1009.7
20260505173050 79 192 7.0 8.7 0.00 0.00 0.00 73 1009.7
20260505172548 79 203 3.5 14.8 0.00 0.00 0.00 74 1009.6
20260505172044 79 185 9.6 13.0 0.00 0.00 0.00 73 1009.8
20260505171539 79 214 7.8 13.9 0.00 0.00 0.00 74 1009.8
20260505171036 78 176 9.6 12.2 0.00 0.00 0.00 75 1009.6
20260505170533 78 212 10.4 16.5 0.00 0.00 0.00 75 1009.6
20260505170029 78 229 6.1 12.2 0.00 0.00 0.00 76 1009.7
20260505165525 78 157 3.5 8.7 0.00 0.00 0.00 76 1009.7
20260505165020 78 250 4.3 8.7 0.00 0.00 0.00 76 1009.6
20260505164517 78 204 7.0 9.6 0.00 0.00 0.00 77 1009.7
20260505164015 78 166 5.2 13.0 0.00 0.00 0.00 77 1009.6
20260505163513 77 198 6.1 7.8 0.00 0.00 0.00 77 1009.7
20260505163010 77 170 10.4 14.8 0.00 0.00 0.00 78 1009.7
20260505162503 77 212 7.0 11.3 0.00 0.00 0.00 78 1009.7
20260505162000 76 253 6.1 13.9 0.00 0.00 0.00 79 1009.6
20260505161456 76 209 7.8 13.0 0.00 0.00 0.00 80 1009.7
20260505160953 76 144 7.0 12.2 0.00 0.00 0.00 80 1009.9
20260505160452 76 214 6.1 11.3 0.00 0.00 0.00 81 1009.8
20260505152928 74 165 6.1 12.2 0.00 0.00 0.00 83 1010.0
20260505152426 74 215 9.6 14.8 0.00 0.00 0.00 83 1009.8
20260505151925 74 190 2.6 13.0 0.00 0.00 0.00 83 1009.8
20260505151421 74 213 9.6 13.9 0.00 0.00 0.00 83 1009.9
20260505150919 74 181 4.3 12.2 0.00 0.00 0.00 83 1009.8
20260505150416 74 184 7.0 8.7 0.00 0.00 0.00 83 1009.7
20260505140346 72 192 7.0 9.6 0.00 0.00 0.00 85 1009.6
20260505130309 71 194 4.3 7.0 0.00 0.00 0.00 86 1009.3
20260505124759 71 182 9.6 12.2 0.00 0.00 0.00 86 1009.1
20260505124256 71 253 6.1 9.6 0.00 0.00 0.00 86 1008.9
20260505123752 71 107 4.3 7.8 0.00 0.00 0.00 86 1009.0
20260505123249 71 222 3.5 7.8 0.00 0.00 0.00 86 1008.6
20260505122745 71 192 5.2 12.2 0.00 0.00 0.00 86 1008.6
20260505122242 71 191 5.2 11.3 0.00 0.00 0.00 86 1008.7
20260505121739 71 195 7.8 12.2 0.00 0.00 0.00 86 1008.6
20260505121236 71 196 4.3 7.8 0.00 0.00 0.00 86 1008.4
20260505120732 71 205 6.1 12.2 0.00 0.00 0.00 85 1008.4
20260505120228 71 200 4.3 9.6 0.00 0.00 0.00 85 1008.3
20260505115727 71 208 5.2 8.7 0.00 0.00 0.00 85 1008.6
20260505115225 71 210 6.1 8.7 0.00 0.00 0.00 86 1008.2
20260505114722 71 206 2.6 11.3 0.00 0.00 0.00 85 1008.3
20260505114218 71 190 2.6 11.3 0.00 0.00 0.00 85 1008.2
20260505113715 71 220 4.3 11.3 0.00 0.00 0.00 85 1008.2
20260505113211 71 156 5.2 8.7 0.00 0.00 0.00 85 1008.2
20260505112708 71 201 7.0 8.7 0.00 0.00 0.00 86 1008.2
20260505112206 71 191 5.2 7.0 0.00 0.00 0.00 86 1008.5
20260505111705 71 200 2.6 5.2 0.00 0.00 0.00 86 1008.1
20260505111201 71 215 5.2 7.8 0.00 0.00 0.00 86 1008.4
20260505110657 71 210 7.8 12.2 0.00 0.00 0.00 86 1008.5
20260505110155 71 200 3.5 7.8 0.00 0.00 0.00 86 1008.4
20260505102131 71 181 9.6 13.0 0.00 0.00 0.00 86 1008.5
20260505101629 71 177 7.8 9.6 0.00 0.00 0.00 86 1008.6
20260505101125 71 225 3.5 9.6 0.00 0.00 0.00 86 1008.5
20260505100621 71 210 7.0 11.3 0.00 0.00 0.00 86 1008.2
20260505100119 71 166 5.2 11.3 0.00 0.00 0.00 86 1008.1
20260505095614 71 195 5.2 8.7 0.00 0.00 0.00 86 1008.4
20260505095111 71 206 5.2 7.0 0.00 0.00 0.00 85 1008.4
20260505094608 71 230 4.3 12.2 0.00 0.00 0.00 85 1008.5
20260505094104 71 171 5.2 7.8 0.00 0.00 0.00 86 1008.5
20260505093600 71 245 3.5 12.2 0.00 0.00 0.00 86 1008.5
20260505093058 71 198 7.0 8.7 0.00 0.00 0.00 86 1008.4
20260505092555 71 245 4.3 7.8 0.00 0.00 0.00 86 1008.6
20260505092054 71 166 4.3 7.0 0.00 0.00 0.00 85 1008.6
20260505091550 71 180 6.1 9.6 0.00 0.00 0.00 85 1008.6
20260505091049 71 231 9.6 11.3 0.00 0.00 0.00 85 1008.6
20260505090546 71 196 3.5 9.6 0.00 0.00 0.00 85 1008.6
20260505090044 71 175 8.7 11.3 0.00 0.00 0.00 85 1008.7
20260505085541 71 190 3.5 13.9 0.00 0.00 0.00 85 1008.5
20260505085039 71 197 5.2 13.9 0.00 0.00 0.00 85 1008.4
20260505084537 71 164 5.2 13.0 0.00 0.00 0.00 85 1008.4
20260505084035 71 227 7.8 9.6 0.00 0.00 0.00 85 1008.5
20260505083532 71 199 8.7 13.0 0.00 0.00 0.00 85 1008.6
20260505083028 71 150 8.7 13.0 0.00 0.00 0.00 85 1008.6
20260505082524 71 237 6.1 8.7 0.00 0.00 0.00 85 1008.7
20260505082021 71 175 8.7 13.9 0.00 0.00 0.00 85 1008.8
20260505081518 71 181 5.2 14.8 0.00 0.00 0.00 85 1008.9
20260505081015 71 199 7.0 11.3 0.00 0.00 0.00 85 1009.0
20260505080511 71 191 5.2 6.1 0.00 0.00 0.00 85 1009.0
20260505080007 71 244 7.8 13.9 0.00 0.00 0.00 84 1009.2
20260505075504 71 197 7.8 11.3 0.00 0.00 0.00 84 1009.1
20260505075000 71 147 7.8 13.9 0.00 0.00 0.00 84 1009.4
20260505074458 71 174 4.3 14.8 0.00 0.00 0.00 84 1009.4
20260505073955 71 171 4.3 13.9 0.00 0.00 0.00 84 1009.4
20260505073452 71 191 5.2 13.0 0.00 0.00 0.00 84 1009.6
20260505072950 71 180 7.8 12.2 0.00 0.00 0.00 84 1009.7
20260505072446 71 195 6.1 8.7 0.00 0.00 0.00 84 1009.9
20260505071942 71 147 5.2 9.6 0.00 0.00 0.00 84 1009.8
20260505071438 71 212 4.3 8.7 0.00 0.00 0.00 84 1009.7
20260505070936 71 150 5.2 11.3 0.00 0.00 0.00 84 1010.0
20260505070433 71 201 5.2 11.3 0.00 0.00 0.00 84 1010.0
20260505065928 71 162 5.2 9.6 0.00 0.00 0.00 84 1010.1
20260505065425 71 221 7.0 11.3 0.00 0.00 0.00 84 1010.1
20260505064922 71 199 6.1 8.7 0.00 0.00 0.00 84 1010.0
20260505064419 71 202 3.5 8.7 0.00 0.00 0.00 84 1010.0
20260505063917 71 161 5.2 8.7 0.00 0.00 0.00 84 1010.1
20260505063413 71 210 3.5 7.8 0.00 0.00 0.00 84 1010.4
20260505062910 71 167 1.7 7.0 0.00 0.00 0.00 84 1010.5
20260505062407 71 195 4.3 8.7 0.00 0.00 0.00 83 1010.3
20260505061904 71 198 3.5 12.2 0.00 0.00 0.00 83 1010.4
20260505061402 71 198 3.5 8.7 0.00 0.00 0.00 83 1010.3
20260505060859 71 183 8.7 11.3 0.00 0.00 0.00 83 1010.4
20260505060356 71 211 4.3 12.2 0.00 0.00 0.00 83 1010.3
20260505055852 71 229 5.2 9.6 0.00 0.00 0.00 83 1010.5
20260505055348 71 200 5.2 7.0 0.00 0.00 0.00 83 1010.6
20260505054845 71 145 1.7 6.1 0.00 0.00 0.00 83 1010.7
20260505054343 71 210 4.3 6.1 0.00 0.00 0.00 83 1010.9
20260505053841 71 188 7.0 7.8 0.00 0.00 0.00 83 1010.5
20260505053337 71 174 4.3 7.0 0.00 0.00 0.00 82 1010.3
20260505052834 71 209 3.5 5.2 0.00 0.00 0.00 82 1010.3
20260505052331 71 201 6.1 11.3 0.00 0.00 0.00 82 1010.7
20260505051828 72 134 2.6 8.7 0.00 0.00 0.00 82 1010.4
20260505051325 72 186 4.3 7.8 0.00 0.00 0.00 81 1010.5
20260505050823 72 221 5.2 8.7 0.00 0.00 0.00 81 1010.6
20260505050322 72 215 4.3 8.7 0.00 0.00 0.00 81 1010.4
20260505041752 73 173 5.2 7.8 0.00 0.00 0.00 78 1010.4
20260505041249 73 191 2.6 11.3 0.00 0.00 0.00 78 1010.2
20260505040746 73 193 5.2 7.0 0.00 0.00 0.00 78 1010.3
20260505040244 73 181 7.0 9.6 0.00 0.00 0.00 77 1010.4
20260505035740 73 197 7.8 9.6 0.00 0.00 0.00 77 1010.2
20260505035236 73 175 3.5 7.0 0.00 0.00 0.00 77 1010.3
20260505034733 73 209 2.6 7.0 0.00 0.00 0.00 76 1010.4
20260505034230 74 174 3.5 9.6 0.00 0.00 0.00 76 1010.5
20260505033727 74 144 4.3 7.8 0.00 0.00 0.00 75 1010.4
20260505033225 74 214 6.1 8.7 0.00 0.00 0.00 75 1010.3
20260505032722 74 254 5.2 8.7 0.00 0.00 0.00 75 1010.3
20260505032218 74 155 3.5 7.0 0.00 0.00 0.00 75 1010.4
20260505031716 74 218 0.9 3.5 0.00 0.00 0.00 75 1010.3
20260505031212 74 195 2.6 5.2 0.00 0.00 0.00 74 1010.4
20260505030709 74 195 6.1 7.8 0.00 0.00 0.00 73 1010.5
20260505030205 74 171 4.3 7.8 0.00 0.00 0.00 73 1010.3
20260505025701 75 169 3.5 7.0 0.00 0.00 0.00 73 1010.1
20260505025159 75 177 3.5 7.8 0.00 0.00 0.00 72 1010.2
20260505024657 75 238 3.5 6.1 0.00 0.00 0.00 72 1010.1
20260505024154 75 195 5.2 7.8 0.00 0.00 0.00 72 1010.0
20260505023651 75 168 4.3 6.1 0.00 0.00 0.00 72 1009.9
20260505023149 75 223 5.2 6.1 0.00 0.00 0.00 71 1010.0
20260505022646 75 183 5.2 8.7 0.00 0.00 0.00 71 1009.8
20260505022143 75 165 5.2 7.8 0.00 0.00 0.00 71 1009.8
20260505021639 76 204 3.5 7.8 0.00 0.00 0.00 70 1009.8
20260505021136 76 170 2.6 8.7 0.00 0.00 0.00 70 1009.9
20260505020632 76 207 2.6 6.1 0.00 0.00 0.00 69 1009.8
20260505020128 76 210 2.6 8.7 0.00 0.00 0.00 69 1009.6
20260505015625 76 175 7.8 9.6 0.00 0.00 0.00 69 1009.3
20260505015122 76 157 7.0 9.6 0.00 0.00 0.00 69 1009.3
20260505014618 76 143 3.5 9.6 0.00 0.00 0.00 69 1009.3
20260505014116 76 177 5.2 8.7 0.00 0.00 0.00 69 1009.6
20260505013613 76 173 7.8 9.6 0.00 0.00 0.00 69 1009.6
20260505013110 76 166 5.2 7.0 0.00 0.00 0.00 69 1009.6
20260505012608 76 163 1.7 7.8 0.00 0.00 0.00 68 1009.6
20260505012105 77 195 5.2 9.6 0.00 0.00 0.00 68 1009.6
20260505011600 77 128 2.6 7.0 0.00 0.00 0.00 68 1009.6
20260505011058 77 193 1.7 9.6 0.00 0.00 0.00 67 1009.7
20260505010553 77 168 2.6 5.2 0.00 0.00 0.00 67 1009.7
20260505010050 77 176 6.1 7.8 0.00 0.00 0.00 66 1009.7
20260505005546 78 194 7.8 7.8 0.00 0.00 0.00 65 1009.5
20260505005044 78 176 3.5 12.2 0.00 0.00 0.00 65 1009.6
20260505004540 78 171 4.3 11.3 0.00 0.00 0.00 65 1009.8
20260505004037 78 149 3.5 9.6 0.00 0.00 0.00 64 1009.7
20260505003535 78 162 5.2 8.7 0.00 0.00 0.00 63 1009.6
20260505003032 79 200 7.8 9.6 0.00 0.00 0.00 63 1009.6
20260505002532 79 182 7.0 13.9 0.00 0.00 0.00 62 1009.7
20260505002031 79 191 7.8 13.0 0.00 0.00 0.00 62 1009.6
20260505001528 79 187 4.3 9.6 0.00 0.00 0.00 61 1009.6
20260505001025 79 189 5.2 12.2 0.00 0.00 0.00 61 1010.0
20260505000523 80 171 5.2 13.0 0.00 0.00 0.00 61 1009.9
20260505000020 80 199 6.1 13.0 0.00 0.00 0.00 60 1009.9
20260504235517 80 216 9.6 20.0 0.00 0.00 0.00 60 1009.6
20260504235013 80 155 5.2 13.0 0.00 0.00 0.00 60 1009.9
20260504234510 80 156 7.8 13.0 0.00 0.00 0.00 60 1009.9
20260504234007 80 211 8.7 15.6 0.00 0.00 0.00 60 1010.0
20260504233502 80 229 5.2 18.2 0.00 0.00 0.00 60 1010.0
20260504233000 80 185 7.0 13.9 0.00 0.00 0.00 60 1010.1
20260504232457 80 197 7.0 14.8 0.00 0.00 0.00 60 1010.3
20260504231954 80 182 8.7 12.2 0.00 0.00 0.00 60 1010.2
20260504231450 80 176 7.8 13.0 0.00 0.00 0.00 60 1010.4
20260504230947 80 207 5.2 12.2 0.00 0.00 0.00 61 1010.2
20260504230443 80 181 5.2 7.8 0.00 0.00 0.00 60 1010.5
20260504225943 80 201 7.8 12.2 0.00 0.00 0.00 61 1010.5
20260504225439 80 167 6.1 12.2 0.00 0.00 0.00 60 1010.7
20260504224936 80 176 2.6 8.7 0.00 0.00 0.00 62 1010.7
20260504224432 79 142 3.5 12.2 0.00 0.00 0.00 61 1010.4
20260504223930 79 196 9.6 15.6 0.00 0.00 0.00 60 1010.5
20260504223425 79 214 5.2 11.3 0.00 0.00 0.00 60 1010.7
20260504222921 80 208 5.2 7.8 0.00 0.00 0.00 61 1010.6
20260504222419 80 182 7.8 13.9 0.00 0.00 0.00 60 1010.7
20260504221917 80 190 10.4 15.6 0.00 0.00 0.00 59 1011.0
20260504221413 80 201 9.6 12.2 0.00 0.00 0.00 59 1010.7
20260504220911 80 146 5.2 7.8 0.00 0.00 0.00 61 1010.9
20260504220407 80 145 7.8 13.9 0.00 0.00 0.00 60 1011.2
20260504215904 79 208 4.3 8.7 0.00 0.00 0.00 61 1010.9
20260504215401 79 186 7.8 13.0 0.00 0.00 0.00 60 1011.1
20260504214857 80 206 6.1 9.6 0.00 0.00 0.00 59 1011.0
20260504214354 80 167 3.5 13.0 0.00 0.00 0.00 60 1011.1
20260504213851 80 236 7.0 18.2 0.00 0.00 0.00 58 1011.3
20260504213346 81 213 8.7 13.9 0.00 0.00 0.00 58 1011.2
20260504212844 80 206 3.5 13.0 0.00 0.00 0.00 60 1011.6
20260504212340 80 170 4.3 13.0 0.00 0.00 0.00 59 1011.8
20260504211838 80 177 5.2 11.3 0.00 0.00 0.00 58 1011.6
20260504211334 81 178 10.4 13.0 0.00 0.00 0.00 58 1011.9
20260504210831 79 210 5.2 11.3 0.00 0.00 0.00 60 1011.6
20260504210328 80 220 8.7 12.2 0.00 0.00 0.00 59 1012.2
20260504205825 80 181 3.5 7.0 0.00 0.00 0.00 60 1012.2
20260504205323 80 198 7.0 8.7 0.00 0.00 0.00 59 1012.2
20260504204821 79 176 6.1 13.0 0.00 0.00 0.00 60 1012.3
20260504204319 79 202 10.4 14.8 0.00 0.00 0.00 59 1012.2
20260504203818 79 227 9.6 14.8 0.00 0.00 0.00 59 1012.3
20260504203315 79 240 9.6 15.6 0.00 0.00 0.00 59 1012.7
20260504202810 79 158 11.3 15.6 0.00 0.00 0.00 59 1012.8
20260504202308 79 218 9.6 18.2 0.00 0.00 0.00 59 1012.9
20260504201804 79 181 7.8 15.6 0.00 0.00 0.00 59 1013.0